[[{"header":{"parameterUnit":"m.s-1","parameterCategory":2,"la1":30.2991,"la2":30.254,"lo1":-89.0895,"lo2":-89.0444,"dy":0.0017,"dx":0.0017,"nx":28,"ny":28,"refTime":"2025-09-05T21:00:00:Z","depth":"0","parameterNumber":2,"parameterNumberName":"U-component_of_CURRENTS"},"data":[0,0,0,0,0,0,0,0,0,0,0,0,0,0,0,0,0,0,0,0,0,0,0,0,0,0,0,0,0,0,0,0,0,0,0,0,0,0,0,0,0,0,0,0,0,0,0,0,0,0,0,0,0,0,0,0,0,0,0.3371,0.3372,0,0.3376,0.3375,0.3374,0.3406,0.3408,0.341,0.3411,0.3367,0.3364,0.3362,0,0,0,0,0,0,0,0,0,0,0,0,0,0.3287,0.3288,0.3371,0.3372,0.3373,0.3376,0.3375,0.3374,0.3406,0.3408,0.341,0.3412,0.3368,0.3365,0.3362,0,0,0,0,0,0,0,0,0,0,0,0,0,0.3302,0.3289,0.3371,0.3396,0.3399,0.3376,0.3375,0.3374,0.3406,0.3408,0.3411,0.3413,0.3369,0.3365,0.3361,0.3286,0,0,0.3349,0.3347,0,0,0,0,0,0,0,0,0.3301,0.3304,0.3392,0.3395,0.3398,0.3401,0.333,0.3345,0.3405,0.3393,0.3411,0.3414,0.3378,0.3374,0.3356,0.3284,0.3282,0.3348,0.3346,0.3344,0.3343,0,0,0,0,0,0,0,0.33,0.3303,0.3363,0.3393,0.3397,0.3373,0.3378,0.3332,0.3363,0.3394,0.3399,0.3414,0.3379,0.336,0.3355,0.3281,0.3348,0.3345,0.3342,0.3341,0.3259,0.326,0,0,0,0,0,0,0.3322,0.3303,0.3363,0.3364,0.3366,0.3374,0.3378,0.339,0.3365,0.3367,0.3412,0.3416,0.3366,0.336,0.3354,0.3379,0.3344,0.334,0.3338,0.3259,0.326,0.326,0,0,0,0,0,0,0.332,0.3327,0.3363,0.3341,0.3346,0.3374,0.3386,0.3389,0.3391,0.3381,0.338,0.3415,0.3367,0.336,0.3345,0.3374,0.3338,0.3335,0.3259,0.3259,0.326,0.3355,0,0,0,0,0,0,0.3317,0.3326,0.333,0.3343,0.3348,0.3374,0.3384,0.3388,0.34,0.3405,0.3382,0.338,0.3369,0.3351,0.3341,0.3367,0.3332,0.3258,0.3259,0.326,0.3352,0.3359,0.3365,0,0,0,0,0,0.3314,0.3321,0.333,0.3338,0.3358,0.3376,0.3375,0.3396,0.3398,0.3403,0.3394,0.3381,0.3348,0.3348,0.3336,0.3362,0.3258,0.3259,0.326,0.3349,0.3357,0.3365,0,0,0,0,0,0,0.3298,0.3326,0.3337,0.3355,0.3376,0.3386,0.3391,0.3395,0.3386,0.3392,0.3372,0.3369,0.3373,0.3339,0.3339,0.3338,0.3304,0.3303,0.3376,0.3384,0.3391,0.34,0.3328,0,0,0,0,0,0.3294,0.3299,0.3332,0.3346,0.3358,0.3368,0.3374,0.3392,0.3393,0.3392,0.3379,0.3362,0.3357,0.3351,0.3332,0.3313,0.3315,0.3323,0.333,0.3336,0.3335,0.3384,0.3396,0.3262,0.3262,0.3262,0,0,0.3296,0.3308,0.3315,0.3341,0.3352,0.3374,0.3376,0.3397,0.3414,0.3384,0.3388,0.338,0.3356,0.3361,0.3358,0.3342,0.3374,0.3337,0.3343,0.3338,0.3386,0.3399,0.3411,0.3262,0.3262,0.3262,0,0,0.3299,0.3311,0.3319,0.3341,0.3371,0.3377,0.3388,0.3405,0.3415,0.341,0.3413,0.3427,0.3383,0.3402,0.3398,0.3417,0.3409,0.3406,0.3447,0.3496,0.3508,0.3519,0.3542,0.3554,0.3409,0.3409,0.3409,0,0.3305,0.3313,0.3326,0.3348,0.3368,0.3383,0.3407,0.3414,0.3425,0.3438,0.3426,0.3425,0.3409,0.3446,0.3461,0.3437,0.345,0.3426,0.3509,0.3519,0.3529,0.355,0.3562,0.3414,0.3413,0.3413,0.3413,0,0.3315,0.3332,0.3341,0.3369,0.3393,0.3411,0.3444,0.3459,0.3461,0.3475,0.3506,0.3494,0.3505,0.3505,0.3483,0.3546,0.353,0.3519,0.3499,0.3549,0.3567,0.3578,0.3421,0.3419,0.3418,0.3416,0,0,0.3297,0.3338,0.3342,0.3358,0.3403,0.3421,0.3461,0.3497,0.3524,0.354,0.3574,0.3586,0.3598,0.3593,0.359,0.3621,0.37,0.3597,0.3597,0.3637,0.3798,0.3695,0.3696,0.3714,0.3716,0.3718,0.3786,0,0.3297,0.3328,0.3354,0.3389,0.3406,0.345,0.3482,0.3528,0.3549,0.3582,0.3613,0.3633,0.3628,0.3637,0.3682,0.3689,0.3733,0.3682,0.3726,0.3727,0.3645,0.3707,0.3496,0.353,0.3797,0.3798,0.38,0,0.3287,0.3306,0.3338,0.339,0.3405,0.3435,0.3493,0.3528,0.3598,0.3618,0.3678,0.3693,0.3757,0.3728,0.3818,0.3788,0.3802,0.3806,0.3809,0.3684,0.3644,0.3519,0.354,0.3444,0.3816,0.3815,0.3814,0,0.3238,0.3291,0.3305,0.3327,0.3394,0.3424,0.3463,0.3539,0.3574,0.3647,0.3675,0.3761,0.3787,0.3847,0.3872,0.3853,0.3948,0.3927,0.3854,0.3846,0.3657,0.3628,0.3599,0.3995,0.3995,0.3995,0.3994,0,0.3211,0.3227,0.3284,0.3295,0.3333,0.3395,0.3442,0.3501,0.3576,0.3621,0.3694,0.3736,0.3816,0.3878,0.3905,0.3917,0.3994,0.387,0.3864,0.368,0.3654,0.3551,0.3517,0.3997,0.3997,0.3996,0.3996,0,0.3168,0.3196,0.3225,0.3289,0.331,0.3346,0.3435,0.347,0.3544,0.3606,0.3631,0.3734,0.3794,0.3865,0.3941,0.3934,0.3839,0.3949,0.3713,0.3677,0.3477,0.3455,0.3308,0.3222,0.3869,0.3867,0.3865,0,0.3143,0.3149,0.3216,0.3236,0.3268,0.3322,0.3359,0.3448,0.3486,0.3598,0.362,0.3699,0.3721,0.38,0.3788,0.3814,0.3747,0.3651,0.3568,0.3442,0.3417,0.3315,0.3247,0.3362,0.3356,0.3351,0.3348,0,0.3104,0.3132,0.3164,0.3196,0.3232,0.3273,0.3329,0.3348,0.3442,0.3482,0.353,0.3551,0.3596,0.3506,0.3534,0.3532,0.3437,0.3552,0.3491,0.307,0.2888,0.2808,0.3341,0.3306,0.331,0.3313,0.3315,0.3317,0.3069,0.3087,0.3112,0.314,0.3178,0.3179,0.3148,0.3198,0.3213,0.3197,0.3354,0.3285,0.3282,0.3251,0.3251,0.3076,0.3125,0.2967,0.2972,0.2897,0.2735,0.3163,0.3078,0.3081,0.3083,0.3085,0.3087,0,0.2982,0.3007,0.3042,0.3039,0.3019,0.3075,0.3077,0.2995,0.2923,0.2977,0.297,0.2878,0.2771,0.2764,0.2636,0.2527,0.2438,0.246,0.2276,0.2258,0.2691,0.2589,0.2308,0.2308,0.2308,0.2309,0.2309,0.2309,0.2926,0.2913,0.2928,0.2849,0.2847,0.2727,0.2682,0.26,0.2575,0.2432,0.2336,0.2353,0.2393,0.2309,0.2159,0.2115,0.1996,0.1848,0.194,0.2247,0.2294,0.234,0.2237,0.1887,0.1886,0.137,0.1366,0.1363]},{"header":{"parameterUnit":"m.s-1","parameterCategory":2,"la1":30.2991,"la2":30.254,"lo1":-89.0895,"lo2":-89.0444,"dy":0.0017,"dx":0.0017,"nx":28,"ny":28,"refTime":"2025-09-05T21:00:00:Z","depth":"0","parameterNumber":3,"parameterNumberName":"V-component_of_CURRENTS"},"data":[0,0,0,0,0,0,0,0,0,0,0,0,0,0,0,0,0,0,0,0,0,0,0,0,0,0,0,0,0,0,0,0,0,0,0,0,0,0,0,0,0,0,0,0,0,0,0,0,0,0,0,0,0,0,0,0,0,0,0.0309,0.0308,0,0.023,0.023,0.0229,0.0179,0.0178,0.0178,0.0178,0.0098,0.0096,0.0094,0,0,0,0,0,0,0,0,0,0,0,0,0,0.0314,0.0315,0.0309,0.0308,0.0307,0.0231,0.023,0.0228,0.0179,0.0178,0.0178,0.0177,0.0098,0.0096,0.0094,0,0,0,0,0,0,0,0,0,0,0,0,0,0.0282,0.0315,0.0309,0.0273,0.0269,0.0231,0.023,0.0228,0.0179,0.0178,0.0178,0.0177,0.0099,0.0096,0.0093,0.0086,0,0,0.0085,0.0084,0,0,0,0,0,0,0,0,0.0284,0.0282,0.0279,0.0275,0.0271,0.0214,0.0202,0.018,0.0179,0.0213,0.0178,0.0177,0.0137,0.0131,0.0117,0.0082,0.0079,0.0085,0.0083,0.0082,0.0081,0,0,0,0,0,0,0,0.0286,0.0284,0.0278,0.0278,0.0273,0.0225,0.0221,0.0197,0.0179,0.021,0.0206,0.0197,0.0134,0.012,0.0115,0.0077,0.0085,0.0082,0.0081,0.008,0.0062,0.0063,0,0,0,0,0,0,0.0302,0.0287,0.0281,0.0276,0.0276,0.0226,0.0222,0.0233,0.0179,0.017,0.0198,0.0195,0.0125,0.0118,0.0112,0.0132,0.0082,0.0079,0.0078,0.0061,0.0062,0.0064,0,0,0,0,0,0,0.0303,0.0303,0.0284,0.0278,0.0272,0.0228,0.024,0.0231,0.022,0.0169,0.016,0.0196,0.0124,0.0116,0.0097,0.0127,0.0078,0.0076,0.006,0.0061,0.0063,0.0152,0,0,0,0,0,0,0.0304,0.0304,0.0316,0.028,0.0273,0.0273,0.024,0.023,0.0215,0.0211,0.0165,0.0156,0.0123,0.0101,0.0094,0.0123,0.0073,0.0058,0.006,0.0062,0.0147,0.0156,0.0164,0,0,0,0,0,0.0304,0.0329,0.0317,0.0316,0.0292,0.0273,0.0266,0.0231,0.0216,0.0218,0.0185,0.0158,0.0111,0.01,0.0091,0.012,0.0057,0.006,0.0062,0.0144,0.0155,0.0164,0,0,0,0,0,0,0.0339,0.0325,0.0312,0.0331,0.0307,0.0265,0.0262,0.0239,0.0214,0.0208,0.0164,0.0154,0.0149,0.0122,0.0111,0.0122,0.0083,0.0085,0.0148,0.0158,0.0167,0.0205,0.0071,0,0,0,0,0,0.0353,0.0369,0.0339,0.0355,0.0345,0.0305,0.0292,0.0268,0.024,0.0228,0.0197,0.017,0.0154,0.0146,0.012,0.0124,0.0116,0.014,0.0148,0.0155,0.0181,0.0194,0.0206,0.0072,0.0072,0.0072,0,0,0.0369,0.0365,0.0372,0.0363,0.0341,0.0341,0.0297,0.0283,0.0289,0.0224,0.0226,0.0192,0.0159,0.0162,0.0159,0.0144,0.0188,0.0159,0.0165,0.0188,0.0198,0.0211,0.0223,0.0074,0.0074,0.0074,0,0,0.0405,0.0408,0.0425,0.0415,0.0388,0.0369,0.037,0.0333,0.0322,0.0312,0.0275,0.0267,0.023,0.0225,0.0216,0.0258,0.0227,0.0246,0.0324,0.0336,0.0348,0.0358,0.0361,0.0371,0.0256,0.0256,0.0256,0,0.0423,0.0447,0.0425,0.0436,0.0437,0.039,0.0405,0.039,0.0353,0.036,0.0325,0.0307,0.027,0.03,0.0311,0.0281,0.0276,0.0287,0.0349,0.0358,0.0367,0.0369,0.0378,0.0261,0.026,0.026,0.0259,0,0.0462,0.0483,0.0494,0.0502,0.0501,0.0507,0.0484,0.0484,0.0463,0.045,0.0463,0.0418,0.0416,0.0401,0.0365,0.0418,0.0389,0.0353,0.0327,0.0387,0.0383,0.0392,0.0267,0.0266,0.0264,0.0263,0,0,0.0493,0.0519,0.0521,0.0542,0.0538,0.0543,0.0565,0.0575,0.0607,0.0572,0.0621,0.0587,0.0568,0.0558,0.0519,0.0528,0.0571,0.0474,0.0473,0.0485,0.0596,0.0559,0.0564,0.0543,0.0545,0.0546,0.0567,0,0.0527,0.0575,0.0577,0.0626,0.0647,0.0635,0.0668,0.0674,0.0672,0.0706,0.0681,0.07,0.0627,0.0633,0.0634,0.0591,0.0599,0.0569,0.0531,0.053,0.0496,0.0575,0.0542,0.0557,0.0575,0.0576,0.0577,0,0.0555,0.0588,0.0643,0.0702,0.0711,0.0737,0.0791,0.0813,0.0846,0.085,0.0869,0.0845,0.0867,0.0787,0.0768,0.0751,0.069,0.0647,0.0646,0.0593,0.051,0.05,0.0571,0.0467,0.059,0.0589,0.0588,0,0.0579,0.0636,0.069,0.0705,0.0757,0.079,0.0819,0.0857,0.0896,0.095,0.0989,0.0995,0.1011,0.0952,0.0856,0.0818,0.0828,0.0759,0.0671,0.0666,0.0624,0.0613,0.06,0.0752,0.0752,0.0752,0.0752,0,0.0617,0.066,0.0709,0.0735,0.0809,0.0832,0.0912,0.0941,0.1008,0.1082,0.1069,0.1132,0.1052,0.1036,0.0927,0.0842,0.0883,0.0716,0.0684,0.0651,0.0643,0.0537,0.0476,0.0752,0.0752,0.0752,0.0752,0,0.064,0.0668,0.0731,0.0796,0.0819,0.0871,0.0958,0.1021,0.1079,0.1181,0.1208,0.1252,0.1243,0.1146,0.1066,0.0941,0.0791,0.0801,0.0766,0.073,0.0535,0.048,0.0462,0.0421,0.072,0.0719,0.0719,0,0.0663,0.0696,0.0765,0.0803,0.0836,0.0912,0.0969,0.1041,0.1115,0.1254,0.1315,0.1355,0.1394,0.1274,0.1079,0.0915,0.0798,0.0748,0.0667,0.0555,0.047,0.044,0.0405,0.0641,0.064,0.064,0.0639,0,0.0708,0.0724,0.0773,0.0844,0.0906,0.0983,0.1073,0.1141,0.1249,0.1354,0.1494,0.1547,0.145,0.1294,0.1062,0.0926,0.0675,0.0724,0.0625,0.0441,0.0393,0.0327,0.0588,0.0631,0.0632,0.0632,0.0633,0.0633,0.074,0.0774,0.0826,0.0901,0.0969,0.1058,0.1131,0.1241,0.1377,0.1544,0.1601,0.1695,0.1462,0.1161,0.0966,0.0592,0.0624,0.0458,0.0412,0.0401,0.0337,0.0584,0.0573,0.0574,0.0574,0.0574,0.0574,0,0.077,0.0811,0.0883,0.0968,0.1046,0.1075,0.1207,0.1293,0.1457,0.1605,0.1731,0.1664,0.1366,0.1046,0.0557,0.0316,0.0236,0.0198,0.0144,0.013,0.0362,0.0332,0.0247,0.0248,0.0248,0.0248,0.0248,0.0248,0.0787,0.0847,0.0885,0.1018,0.1082,0.1187,0.1262,0.1394,0.1516,0.1677,0.173,0.1767,0.1517,0.0712,0.018,0.0066,-0.0074,-0.0113,-0.0152,-0.002,0.0,0.002,-0.0022,-0.0179,-0.0179,-0.0369,-0.0372,-0.0373]}],[{"header":{"parameterUnit":"m.s-1","parameterCategory":2,"la1":30.2991,"la2":30.254,"lo1":-89.0895,"lo2":-89.0444,"dy":0.0017,"dx":0.0017,"nx":28,"ny":28,"refTime":"2025-09-05T21:00:00:Z","depth":"2","parameterNumber":2,"parameterNumberName":"U-component_of_CURRENTS"},"data":[0,0,0,0,0,0,0,0,0,0,0,0,0,0,0,0,0,0,0,0,0,0,0,0,0,0,0,0,0,0,0,0,0,0,0,0,0,0,0,0,0,0,0,0,0,0,0,0,0,0,0,0,0,0,0,0,0,0,0.219,0.219,0,0.2191,0.219,0.2189,0.2246,0.2248,0.225,0.2252,0.2322,0.2322,0.2322,0,0,0,0,0,0,0,0,0,0,0,0,0,0.2162,0.2162,0.219,0.219,0.2191,0.2191,0.219,0.2189,0.2245,0.2248,0.2251,0.2253,0.2322,0.2322,0.2322,0,0,0,0,0,0,0,0,0,0,0,0,0,0.2162,0.2162,0.2189,0.2225,0.2229,0.2191,0.219,0.2189,0.2245,0.2248,0.2251,0.2254,0.2322,0.2322,0.2322,0.2253,0,0,0.2321,0.2321,0,0,0,0,0,0,0,0,0.2162,0.2162,0.2219,0.2223,0.2227,0.2229,0.2206,0.2217,0.2244,0.223,0.2252,0.2256,0.23,0.2302,0.2282,0.2256,0.2259,0.2321,0.2321,0.232,0.232,0,0,0,0,0,0,0,0.2162,0.2161,0.2182,0.222,0.2225,0.2216,0.2219,0.2207,0.2241,0.2231,0.2238,0.225,0.2302,0.2282,0.2284,0.226,0.2321,0.232,0.232,0.232,0.2319,0.2319,0,0,0,0,0,0,0.2178,0.2161,0.2182,0.2183,0.2211,0.2215,0.2218,0.2218,0.224,0.2249,0.2247,0.2252,0.2281,0.2285,0.2287,0.2343,0.232,0.232,0.232,0.2319,0.2319,0.2319,0,0,0,0,0,0,0.2177,0.2179,0.2182,0.218,0.2181,0.2213,0.2211,0.2216,0.2233,0.2253,0.2261,0.2265,0.2284,0.2288,0.2324,0.2342,0.232,0.232,0.2319,0.2319,0.2319,0.2368,0,0,0,0,0,0,0.2176,0.2178,0.2193,0.218,0.2182,0.2179,0.2209,0.2214,0.2237,0.2245,0.2269,0.2277,0.2286,0.2325,0.2324,0.2341,0.2319,0.2318,0.2319,0.2319,0.2366,0.237,0.2373,0,0,0,0,0,0.2174,0.2195,0.2193,0.2197,0.2197,0.218,0.2178,0.2207,0.2236,0.2235,0.2274,0.2279,0.2326,0.2325,0.2324,0.2341,0.2318,0.2319,0.2319,0.2364,0.2369,0.2373,0,0,0,0,0,0,0.2207,0.2202,0.22,0.2223,0.2207,0.2193,0.2206,0.2214,0.2236,0.226,0.228,0.229,0.2335,0.2318,0.2317,0.2339,0.2321,0.2321,0.2356,0.236,0.2363,0.2471,0.2319,0,0,0,0,0,0.2212,0.2206,0.2204,0.2209,0.2212,0.2204,0.2208,0.2218,0.2233,0.2246,0.2269,0.2293,0.2321,0.2331,0.2347,0.2343,0.2364,0.2351,0.2355,0.2358,0.2443,0.2458,0.2472,0.232,0.232,0.232,0,0,0.2214,0.2218,0.2211,0.2212,0.2203,0.2209,0.2214,0.222,0.2242,0.2249,0.2297,0.2314,0.2328,0.2352,0.2366,0.2347,0.24,0.2358,0.2361,0.2447,0.246,0.2475,0.2489,0.232,0.232,0.232,0,0,0.2215,0.2227,0.2224,0.2219,0.2223,0.2221,0.223,0.223,0.2257,0.2286,0.2314,0.2362,0.2365,0.2399,0.2412,0.2436,0.243,0.2409,0.2504,0.2513,0.2528,0.254,0.2543,0.2556,0.2395,0.2396,0.2396,0,0.2233,0.2224,0.2219,0.2226,0.2229,0.2234,0.2237,0.2258,0.2275,0.2301,0.232,0.2398,0.2406,0.2469,0.2503,0.2453,0.2455,0.2485,0.2522,0.2536,0.2548,0.2548,0.2562,0.2398,0.2398,0.2397,0.2397,0,0.2207,0.223,0.2231,0.2236,0.2238,0.2236,0.2265,0.2299,0.2336,0.2351,0.2438,0.2476,0.252,0.252,0.254,0.2621,0.259,0.2534,0.2521,0.2568,0.2562,0.2576,0.2401,0.24,0.24,0.2399,0,0,0.2192,0.2209,0.2215,0.2233,0.2243,0.2246,0.23,0.2335,0.2389,0.2445,0.252,0.2608,0.2632,0.2657,0.2664,0.2725,0.2798,0.2693,0.2692,0.2716,0.2826,0.2678,0.2677,0.2739,0.2743,0.2745,0.2771,0,0.2179,0.2202,0.22,0.2229,0.2254,0.2278,0.2326,0.2369,0.2415,0.2491,0.2578,0.2648,0.267,0.271,0.2771,0.2812,0.2846,0.2799,0.2766,0.2767,0.2645,0.2693,0.2485,0.2481,0.2784,0.2786,0.2788,0,0.216,0.2188,0.22,0.2263,0.2271,0.2293,0.2369,0.2417,0.2518,0.2576,0.2668,0.269,0.2828,0.2821,0.2941,0.2906,0.2897,0.2927,0.2924,0.2807,0.2647,0.2491,0.2494,0.2811,0.2809,0.2807,0.2806,0,0.2151,0.2201,0.2209,0.2217,0.2275,0.2311,0.2369,0.2448,0.2492,0.2646,0.268,0.2802,0.2874,0.2935,0.2976,0.2955,0.3096,0.3015,0.2875,0.2862,0.27,0.2666,0.3091,0.3091,0.3091,0.3091,0.3091,0,0.2134,0.2162,0.2222,0.2226,0.2274,0.2338,0.2397,0.2488,0.2593,0.264,0.2728,0.2788,0.2915,0.2957,0.3,0.2994,0.3071,0.2952,0.2879,0.27,0.2667,0.2974,0.296,0.3092,0.3091,0.3091,0.3091,0,0.21,0.2133,0.2159,0.2229,0.2262,0.2308,0.2402,0.244,0.258,0.2654,0.27,0.2799,0.2877,0.2938,0.3039,0.2981,0.3015,0.2969,0.2758,0.2661,0.2768,0.2756,0.2823,0.2819,0.2815,0.2812,0.2809,0,0.2072,0.2073,0.2133,0.2147,0.2173,0.2261,0.2295,0.2439,0.2477,0.2639,0.2656,0.2745,0.275,0.2835,0.2823,0.2825,0.2924,0.2591,0.2516,0.2829,0.2751,0.2745,0.2738,0.2305,0.2298,0.2293,0.2289,0,0.1991,0.1999,0.2011,0.2061,0.2092,0.2129,0.2219,0.2244,0.2403,0.2429,0.2485,0.2504,0.2582,0.2494,0.2503,0.248,0.2582,0.2473,0.2871,0.2389,0.2337,0.2261,0.2272,0.224,0.2245,0.2249,0.2251,0.2253,0.1916,0.1888,0.1903,0.1956,0.1976,0.1997,0.2006,0.2066,0.2086,0.2133,0.2246,0.2219,0.2277,0.2165,0.2117,0.2091,0.2251,0.2154,0.2173,0.2197,0.2117,0.2059,0.1896,0.1899,0.1901,0.1904,0.1905,0,0.1798,0.1792,0.1807,0.1832,0.1804,0.1883,0.192,0.1892,0.1847,0.1907,0.1906,0.1751,0.1692,0.1787,0.1656,0.1623,0.1634,0.1569,0.1587,0.1635,0.1678,0.1573,0.1207,0.1205,0.1203,0.1201,0,0,0.1739,0.1708,0.1726,0.167,0.1677,0.1613,0.161,0.1577,0.1594,0.1511,0.1482,0.1597,0.1694,0.1421,0.1389,0.1283,0.145,0.1228,0.1789,0.1857,0.1897,0.2013,0.1905,0,0,0,0,0]},{"header":{"parameterUnit":"m.s-1","parameterCategory":2,"la1":30.2991,"la2":30.254,"lo1":-89.0895,"lo2":-89.0444,"dy":0.0017,"dx":0.0017,"nx":28,"ny":28,"refTime":"2025-09-05T21:00:00:Z","depth":"2","parameterNumber":3,"parameterNumberName":"V-component_of_CURRENTS"},"data":[0,0,0,0,0,0,0,0,0,0,0,0,0,0,0,0,0,0,0,0,0,0,0,0,0,0,0,0,0,0,0,0,0,0,0,0,0,0,0,0,0,0,0,0,0,0,0,0,0,0,0,0,0,0,0,0,0,0,0.0126,0.0125,0,0.0067,0.0066,0.0066,0.0058,0.0058,0.0058,0.0058,0.0016,0.0015,0.0014,0,0,0,0,0,0,0,0,0,0,0,0,0,0.0143,0.0144,0.0126,0.0125,0.0124,0.0067,0.0066,0.0066,0.0058,0.0058,0.0058,0.0058,0.0017,0.0015,0.0014,0,0,0,0,0,0,0,0,0,0,0,0,0,0.012,0.0144,0.0127,0.0109,0.0107,0.0067,0.0066,0.0066,0.0058,0.0058,0.0058,0.0058,0.0017,0.0015,0.0014,0.0,0,0,0.0008,0.0007,0,0,0,0,0,0,0,0,0.0122,0.0121,0.0113,0.011,0.0107,0.0065,0.0056,0.0043,0.0058,0.0082,0.0058,0.0058,0.0031,0.0028,0.0024,-0.0002,-0.0004,0.0008,0.0007,0.0006,0.0006,0,0,0,0,0,0,0,0.0124,0.0122,0.0108,0.0111,0.0108,0.0073,0.0071,0.0054,0.0061,0.008,0.0078,0.0063,0.003,0.0025,0.0023,-0.0004,0.0008,0.0007,0.0005,0.0005,-0.0027,-0.0027,0,0,0,0,0,0,0.0125,0.0125,0.011,0.0106,0.0109,0.0073,0.0071,0.0083,0.0061,0.0056,0.0063,0.0063,0.0028,0.0025,0.0021,0.002,0.0006,0.0005,0.0004,-0.0027,-0.0027,-0.0027,0,0,0,0,0,0,0.0126,0.0126,0.0112,0.0108,0.0103,0.0072,0.0086,0.0082,0.0078,0.0046,0.0043,0.0063,0.0028,0.0024,0.0008,0.0018,0.0004,0.0002,-0.0028,-0.0027,-0.0027,0.0008,0,0,0,0,0,0,0.0128,0.0127,0.0139,0.0109,0.0103,0.0095,0.0085,0.008,0.0065,0.0065,0.0045,0.0041,0.0028,0.0011,0.0006,0.0015,0.0001,-0.0028,-0.0028,-0.0027,0.0007,0.001,0.0012,0,0,0,0,0,0.0129,0.0144,0.0141,0.0138,0.0121,0.0095,0.009,0.007,0.0065,0.0068,0.0051,0.0042,0.0011,0.0009,0.0004,0.0013,-0.0028,-0.0028,-0.0027,0.0006,0.0009,0.0012,0,0,0,0,0,0,0.0153,0.0143,0.0139,0.015,0.0126,0.0092,0.0084,0.0072,0.0061,0.0059,0.0039,0.0034,0.0027,0.0012,0.0011,0.0005,-0.0008,-0.0009,0.0018,0.0022,0.0024,0.0046,-0.0001,0,0,0,0,0,0.0164,0.018,0.0151,0.016,0.0147,0.0117,0.0104,0.009,0.0069,0.0065,0.0052,0.0037,0.0024,0.0017,0.0004,-0.0005,-0.0012,-0.0001,0.0001,0.0004,0.0018,0.0019,0.0024,-0.0025,-0.0025,-0.0025,0,0,0.017,0.0169,0.0175,0.0166,0.0145,0.0138,0.0112,0.0091,0.0092,0.0061,0.0064,0.0044,0.0023,0.0018,0.0014,0.0008,0.001,0.0004,0.0007,0.002,0.0021,0.0025,0.003,-0.0025,-0.0025,-0.0025,0,0,0.0186,0.0193,0.0205,0.0193,0.0164,0.0149,0.0145,0.0115,0.0109,0.01,0.0081,0.0067,0.0049,0.0038,0.0029,0.0038,0.0025,0.0033,0.0065,0.0066,0.007,0.0074,0.0056,0.0058,0.0035,0.0035,0.0035,0,0.0195,0.0213,0.0199,0.0202,0.0197,0.0159,0.0162,0.0148,0.0121,0.0122,0.0108,0.0092,0.0062,0.0066,0.0063,0.0045,0.004,0.0054,0.0071,0.0074,0.0078,0.0058,0.006,0.0037,0.0037,0.0036,0.0036,0,0.0215,0.0228,0.0228,0.0235,0.0227,0.0222,0.0198,0.0192,0.0179,0.017,0.017,0.0136,0.013,0.0114,0.0086,0.0098,0.0083,0.0074,0.0065,0.0085,0.0063,0.0064,0.0039,0.0039,0.0038,0.0038,0,0,0.0244,0.0247,0.0249,0.0259,0.0248,0.0245,0.0244,0.0239,0.0251,0.023,0.0257,0.0214,0.0199,0.0188,0.0157,0.015,0.0146,0.0123,0.0122,0.011,0.014,0.0098,0.0094,0.0145,0.0146,0.0146,0.011,0,0.0265,0.0289,0.0285,0.0306,0.0313,0.0294,0.0305,0.0297,0.0288,0.0306,0.0278,0.0289,0.0227,0.0229,0.021,0.0173,0.0154,0.0156,0.0119,0.0118,0.0082,0.0097,0.0121,0.0089,0.0111,0.0111,0.0111,0,0.0286,0.0305,0.0332,0.0353,0.0354,0.0364,0.0382,0.039,0.0395,0.0394,0.0394,0.0375,0.036,0.0313,0.0257,0.0264,0.0202,0.0167,0.0164,0.0118,0.0078,0.0075,0.009,0.0113,0.0113,0.0113,0.0113,0,0.0317,0.0338,0.0368,0.0375,0.039,0.0401,0.0414,0.0418,0.0444,0.0462,0.0484,0.0461,0.0467,0.0399,0.0298,0.0284,0.0244,0.0214,0.0115,0.0111,0.0122,0.0117,0.0175,0.0175,0.0175,0.0175,0.0176,0,0.0347,0.037,0.0386,0.0404,0.0447,0.0445,0.0493,0.0495,0.0532,0.0591,0.0538,0.0578,0.0493,0.045,0.0343,0.0235,0.0271,0.0128,0.0106,0.0131,0.0128,0.0144,0.0141,0.0174,0.0174,0.0175,0.0175,0,0.0371,0.0383,0.0417,0.0444,0.046,0.0493,0.0551,0.059,0.0606,0.0686,0.0703,0.0684,0.0628,0.0512,0.0416,0.0298,0.0196,0.0143,0.0166,0.0147,0.0046,0.0045,0.0034,0.0032,0.0031,0.003,0.0029,0,0.0387,0.0407,0.0449,0.048,0.0494,0.0548,0.0592,0.063,0.0689,0.0757,0.0809,0.0776,0.0759,0.0576,0.0394,0.0205,0.0184,0.0089,0.0056,0.0056,0.0035,0.0037,0.0038,0.0078,0.0078,0.0078,0.0077,0,0.042,0.043,0.046,0.0527,0.0577,0.0638,0.071,0.0772,0.0844,0.0891,0.096,0.095,0.0787,0.0617,0.0354,0.0227,0.0119,0.0072,0.0095,0.0103,0.0093,0.0074,0.0075,0.0074,0.0074,0.0074,0.0074,0.0075,0.0445,0.0469,0.0515,0.0581,0.0643,0.0729,0.0791,0.0877,0.0974,0.1057,0.1058,0.1029,0.0849,0.0503,0.0299,0.0082,0.0082,-0.0003,0.0001,0.0005,0.0009,-0.0003,-0.0041,-0.0041,-0.0041,-0.0042,-0.0042,0,0.0477,0.0512,0.0573,0.0653,0.0728,0.0755,0.0873,0.0933,0.1049,0.1108,0.1133,0.0941,0.0744,0.0534,0.0211,0.0003,0.0003,-0.0057,-0.0003,0.0002,0.0005,0.0012,-0.0039,-0.0039,-0.004,-0.004,0,0,0.0497,0.0555,0.0588,0.0717,0.0778,0.0875,0.0941,0.1024,0.1084,0.1119,0.1103,0.1045,0.0806,0.0567,0.0313,0.0143,0.0114,0.0103,0.0122,0.0221,0.0227,0.0057,0.0074,0,0,0,0,0]}],[{"header":{"parameterUnit":"m.s-1","parameterCategory":2,"la1":30.2991,"la2":30.254,"lo1":-89.0895,"lo2":-89.0444,"dy":0.0017,"dx":0.0017,"nx":28,"ny":28,"refTime":"2025-09-05T21:00:00:Z","depth":"4","parameterNumber":2,"parameterNumberName":"U-component_of_CURRENTS"},"data":[0,0,0,0,0,0,0,0,0,0,0,0,0,0,0,0,0,0,0,0,0,0,0,0,0,0,0,0,0,0,0,0,0,0,0,0,0,0,0,0,0,0,0,0,0,0,0,0,0,0,0,0,0,0,0,0,0,0,0.0974,0.0974,0,0.0972,0.0971,0.0971,0.096,0.096,0.096,0.0959,0.1041,0.1043,0.1045,0,0,0,0,0,0,0,0,0,0,0,0,0,0.0928,0.0929,0.0973,0.0974,0.0974,0.0972,0.0971,0.0971,0.096,0.096,0.096,0.0959,0.104,0.1043,0.1045,0,0,0,0,0,0,0,0,0,0,0,0,0,0.0937,0.0929,0.0973,0.097,0.097,0.0972,0.0971,0.0971,0.096,0.096,0.096,0.0959,0.1039,0.1042,0.1046,0.1068,0,0,0.1056,0.1057,0,0,0,0,0,0,0,0,0.0936,0.0938,0.097,0.097,0.097,0.0968,0.0985,0.1008,0.096,0.0961,0.0959,0.0959,0.1026,0.103,0.1025,0.1071,0.1075,0.1056,0.1058,0.1059,0.106,0,0,0,0,0,0,0,0.0936,0.0938,0.097,0.097,0.097,0.0955,0.0956,0.0989,0.0993,0.0961,0.096,0.0964,0.1026,0.1022,0.1027,0.1076,0.1056,0.1059,0.1061,0.1062,0.119,0.1191,0,0,0,0,0,0,0.0943,0.0938,0.097,0.097,0.0955,0.0956,0.0957,0.0967,0.0991,0.0995,0.0964,0.0964,0.1016,0.1024,0.103,0.1089,0.1059,0.1063,0.1064,0.1189,0.119,0.1192,0,0,0,0,0,0,0.0943,0.0947,0.097,0.0955,0.0958,0.0958,0.0968,0.0967,0.0988,0.0993,0.0998,0.099,0.1017,0.1026,0.1072,0.1092,0.1064,0.1067,0.1187,0.1189,0.1191,0.1188,0,0,0,0,0,0,0.0941,0.0946,0.0963,0.0956,0.0959,0.0973,0.0968,0.0967,0.099,0.099,0.1017,0.1023,0.1017,0.1067,0.1076,0.1096,0.107,0.1185,0.1188,0.119,0.1187,0.119,0.1193,0,0,0,0,0,0.094,0.0955,0.0964,0.0968,0.098,0.0973,0.0973,0.097,0.0992,0.0993,0.102,0.1023,0.109,0.1071,0.1081,0.1102,0.1184,0.1187,0.119,0.1185,0.1189,0.1193,0,0,0,0,0,0,0.0927,0.0956,0.0965,0.0984,0.0983,0.0972,0.0977,0.0992,0.1014,0.1024,0.1042,0.1049,0.1098,0.1108,0.1088,0.1149,0.1138,0.1144,0.1131,0.1136,0.1139,0.1144,0.1072,0,0,0,0,0,0.0939,0.0976,0.0973,0.0994,0.099,0.0996,0.1001,0.1001,0.1016,0.1025,0.1058,0.109,0.1115,0.1132,0.1157,0.1194,0.1217,0.1216,0.1219,0.1221,0.1234,0.1293,0.1302,0.1202,0.1202,0.1202,0,0,0.095,0.0964,0.099,0.0998,0.0996,0.0997,0.0998,0.1004,0.1025,0.1035,0.109,0.1112,0.1131,0.1162,0.1185,0.1174,0.1259,0.1226,0.1227,0.1239,0.1297,0.1307,0.1316,0.1204,0.1204,0.1204,0,0,0.0963,0.0989,0.101,0.1012,0.1014,0.1013,0.1026,0.1036,0.1054,0.1104,0.1114,0.115,0.1206,0.1206,0.1216,0.1262,0.1281,0.1277,0.1289,0.1346,0.1354,0.1362,0.1385,0.1395,0.127,0.127,0.127,0,0.0963,0.0992,0.1011,0.1012,0.1018,0.1028,0.103,0.105,0.1087,0.1108,0.1126,0.121,0.1225,0.1251,0.1257,0.1268,0.1298,0.1265,0.1349,0.1357,0.1365,0.1387,0.1398,0.127,0.127,0.127,0.127,0,0.0977,0.1003,0.1007,0.1027,0.1034,0.1037,0.1054,0.108,0.1122,0.1151,0.1214,0.1239,0.1284,0.1291,0.1288,0.1344,0.1344,0.135,0.1333,0.1375,0.1395,0.1407,0.127,0.127,0.127,0.127,0,0,0.0969,0.1008,0.1015,0.1018,0.1041,0.1037,0.1075,0.1097,0.1134,0.119,0.125,0.1285,0.1315,0.133,0.1335,0.1375,0.1442,0.1387,0.139,0.14,0.1555,0.1415,0.1414,0.1469,0.1471,0.1473,0.1539,0,0.0965,0.0976,0.1006,0.1022,0.102,0.1042,0.1078,0.111,0.1162,0.1229,0.1268,0.1338,0.1326,0.1358,0.1394,0.1432,0.1477,0.1423,0.1524,0.1526,0.1389,0.1425,0.1481,0.1547,0.155,0.1552,0.1553,0,0.0965,0.0974,0.0989,0.1013,0.1014,0.1035,0.1076,0.1116,0.1199,0.1241,0.1308,0.1368,0.1422,0.1433,0.1513,0.1483,0.153,0.156,0.1563,0.1445,0.1408,0.1505,0.1574,0.1572,0.1571,0.1569,0.1568,0,0.0939,0.0961,0.0975,0.0984,0.1016,0.1031,0.1058,0.1127,0.1162,0.1275,0.1324,0.1403,0.1471,0.1529,0.1573,0.1568,0.167,0.1668,0.1587,0.1577,0.1684,0.1676,0.1766,0.1766,0.1766,0.1766,0.1765,0,0.0913,0.092,0.0967,0.097,0.0987,0.1026,0.107,0.1103,0.1185,0.1238,0.1344,0.1397,0.1513,0.1578,0.1603,0.1602,0.1693,0.1597,0.1591,0.1678,0.1668,0.1691,0.1681,0.1768,0.1768,0.1767,0.1767,0,0.0866,0.0906,0.0918,0.096,0.0978,0.0995,0.1052,0.1081,0.117,0.1247,0.1291,0.1421,0.1504,0.1575,0.1682,0.1632,0.165,0.1643,0.1711,0.1708,0.1516,0.1507,0.1559,0.1554,0.1551,0.1548,0.1545,0,0.0832,0.084,0.0904,0.0915,0.0933,0.0972,0.0997,0.1068,0.11,0.1237,0.1263,0.1405,0.1482,0.1504,0.1581,0.1607,0.1606,0.1593,0.1572,0.1509,0.15,0.1495,0.149,0.1539,0.1539,0.1538,0.1537,0,0.075,0.0797,0.0805,0.0847,0.0876,0.0903,0.0946,0.096,0.1059,0.1146,0.1221,0.1287,0.1387,0.1452,0.1486,0.1501,0.1573,0.1555,0.1563,0.1544,0.1487,0.148,0.1479,0.1524,0.1526,0.1527,0.1528,0,0.0696,0.069,0.0731,0.076,0.0794,0.0822,0.0857,0.0897,0.0944,0.109,0.1115,0.1257,0.1381,0.1398,0.1412,0.1417,0.1414,0.1366,0.1384,0.1398,0.1311,0.1212,0.1167,0,0,0,0,0,0.0643,0.0635,0.0637,0.0672,0.0702,0.0742,0.0809,0.0854,0.0963,0.0983,0.1041,0.1125,0.1192,0.1261,0.1241,0.1336,0.1408,0.1302,0.1358,0.1455,0.1469,0.1379,0,0,0,0,0,0,0.061,0.0602,0.061,0.0594,0.0612,0.0645,0.0701,0.0775,0.0792,0.0912,0.0964,0.1043,0.1135,0.1203,0.1221,0.1236,0.1241,0.1376,0.1372,0.1447,0.146,0.1471,0.1384,0,0,0,0,0]},{"header":{"parameterUnit":"m.s-1","parameterCategory":2,"la1":30.2991,"la2":30.254,"lo1":-89.0895,"lo2":-89.0444,"dy":0.0017,"dx":0.0017,"nx":28,"ny":28,"refTime":"2025-09-05T21:00:00:Z","depth":"4","parameterNumber":3,"parameterNumberName":"V-component_of_CURRENTS"},"data":[0,0,0,0,0,0,0,0,0,0,0,0,0,0,0,0,0,0,0,0,0,0,0,0,0,0,0,0,0,0,0,0,0,0,0,0,0,0,0,0,0,0,0,0,0,0,0,0,0,0,0,0,0,0,0,0,0,0,0.0146,0.0145,0,0.013,0.013,0.013,0.0153,0.0154,0.0154,0.0155,0.0149,0.0148,0.0148,0,0,0,0,0,0,0,0,0,0,0,0,0,0.0155,0.0156,0.0146,0.0145,0.0145,0.013,0.013,0.013,0.0153,0.0154,0.0154,0.0155,0.0149,0.0148,0.0147,0,0,0,0,0,0,0,0,0,0,0,0,0,0.015,0.0156,0.0146,0.0152,0.0152,0.013,0.013,0.013,0.0153,0.0154,0.0155,0.0155,0.0149,0.0148,0.0147,0.0128,0,0,0.0145,0.0144,0,0,0,0,0,0,0,0,0.0151,0.0151,0.0151,0.0151,0.0151,0.0141,0.0131,0.0128,0.0153,0.0157,0.0155,0.0156,0.0144,0.0143,0.0144,0.0128,0.0127,0.0145,0.0144,0.0144,0.0143,0,0,0,0,0,0,0,0.0151,0.0151,0.0143,0.0151,0.015,0.014,0.0141,0.0131,0.015,0.0156,0.0157,0.0149,0.0145,0.0145,0.0144,0.0127,0.0145,0.0144,0.0143,0.0143,0.0095,0.0095,0,0,0,0,0,0,0.0147,0.0152,0.0144,0.0143,0.0148,0.014,0.0141,0.0147,0.015,0.015,0.0148,0.015,0.0146,0.0145,0.0144,0.0138,0.0144,0.0143,0.0142,0.0096,0.0095,0.0094,0,0,0,0,0,0,0.0147,0.0147,0.0145,0.0143,0.0141,0.0139,0.0145,0.0146,0.015,0.0143,0.0144,0.0152,0.0147,0.0145,0.0135,0.0137,0.0142,0.0142,0.0097,0.0096,0.0095,0.0115,0,0,0,0,0,0,0.0148,0.0147,0.0153,0.0143,0.0141,0.0137,0.0144,0.0145,0.0142,0.0144,0.0145,0.0146,0.0147,0.0137,0.0134,0.0136,0.0141,0.0098,0.0096,0.0095,0.0115,0.0115,0.0114,0,0,0,0,0,0.0148,0.0154,0.0154,0.0153,0.0149,0.0136,0.0135,0.0138,0.0141,0.0144,0.0141,0.0146,0.0126,0.0135,0.0133,0.0135,0.0098,0.0097,0.0095,0.0115,0.0115,0.0114,0,0,0,0,0,0,0.0158,0.0155,0.0156,0.016,0.015,0.0139,0.0138,0.0136,0.0136,0.014,0.0137,0.0137,0.0128,0.0121,0.0131,0.0114,0.0112,0.011,0.0128,0.0128,0.0127,0.0135,0.014,0,0,0,0,0,0.0162,0.0171,0.0157,0.0161,0.0154,0.0146,0.0141,0.0142,0.0135,0.0137,0.0133,0.0126,0.0117,0.0116,0.0105,0.0096,0.0081,0.0093,0.0093,0.0093,0.0095,0.0064,0.0061,0.0089,0.0089,0.0089,0,0,0.0162,0.0164,0.0167,0.0164,0.0157,0.0154,0.0146,0.0141,0.0142,0.0134,0.0135,0.0123,0.0111,0.0104,0.01,0.0103,0.0075,0.0091,0.0091,0.0093,0.0062,0.006,0.0057,0.0088,0.0088,0.0088,0,0,0.0167,0.0173,0.0179,0.0175,0.0165,0.016,0.0158,0.0146,0.0145,0.0138,0.0131,0.0116,0.0107,0.0098,0.0092,0.0078,0.0071,0.0076,0.0086,0.0056,0.0054,0.0052,0.0029,0.0025,0.008,0.008,0.008,0,0.0174,0.018,0.0175,0.0179,0.0178,0.0164,0.0166,0.016,0.0148,0.0144,0.0142,0.0115,0.0103,0.0091,0.0089,0.0078,0.0064,0.0095,0.0057,0.0055,0.0052,0.0029,0.0024,0.0081,0.0081,0.0081,0.0081,0,0.0179,0.0187,0.0187,0.0195,0.0193,0.0192,0.018,0.0175,0.017,0.0163,0.0145,0.0123,0.0109,0.0099,0.0094,0.0071,0.0067,0.0059,0.0064,0.0051,0.0027,0.0022,0.0082,0.0082,0.0081,0.0081,0,0,0.0193,0.0194,0.0197,0.0206,0.0204,0.0206,0.0201,0.0194,0.0196,0.0176,0.0173,0.0142,0.0128,0.0119,0.0101,0.0076,0.0044,0.0066,0.0064,0.0053,-0.0017,-0.0012,-0.0017,0.0034,0.0033,0.0032,-0.0026,0,0.0202,0.0219,0.0214,0.0231,0.0236,0.0228,0.0232,0.0226,0.0212,0.0206,0.0172,0.0163,0.0137,0.0133,0.0101,0.0056,0.003,0.006,-0.0011,-0.0013,0.0001,-0.0023,0.0029,-0.003,-0.0031,-0.0032,-0.0033,0,0.021,0.0223,0.024,0.0258,0.026,0.0271,0.0278,0.028,0.0261,0.0249,0.0223,0.0198,0.0155,0.0139,0.0052,0.0075,0.0032,-0.0003,-0.0007,-0.0012,-0.0018,-0.0017,-0.0043,-0.0042,-0.0041,-0.0041,-0.004,0,0.0227,0.0243,0.0262,0.0268,0.0282,0.0291,0.0305,0.0296,0.0304,0.0278,0.0278,0.0218,0.0201,0.0125,0.0046,0.0049,-0.0046,-0.0052,-0.0089,-0.0089,-0.0083,-0.008,-0.011,-0.011,-0.011,-0.011,-0.011,0,0.0241,0.0259,0.0276,0.0288,0.0322,0.0324,0.0357,0.0349,0.035,0.0364,0.0309,0.0297,0.0199,0.0133,0.0052,-0.0038,-0.0047,-0.0092,-0.0107,-0.0074,-0.0069,-0.0087,-0.0083,-0.0112,-0.0112,-0.0111,-0.0111,0,0.0256,0.0263,0.0292,0.0317,0.0329,0.036,0.0405,0.0427,0.0416,0.0429,0.0424,0.0358,0.0269,0.0164,0.0044,-0.0017,-0.0113,-0.0138,-0.0093,-0.0103,-0.0137,-0.0132,-0.019,-0.0191,-0.0191,-0.0191,-0.0192,0,0.0264,0.0278,0.032,0.0347,0.0362,0.0411,0.0448,0.046,0.0481,0.0464,0.0469,0.0395,0.0339,0.0172,0.0055,-0.0104,-0.012,-0.0166,-0.0158,-0.0139,-0.0147,-0.0141,-0.0136,-0.0192,-0.0192,-0.0192,-0.0192,0,0.0278,0.0295,0.032,0.0378,0.0423,0.0476,0.0524,0.0541,0.0554,0.0548,0.0506,0.0416,0.0323,0.0181,0.0063,-0.0052,-0.0141,-0.017,-0.017,-0.0162,-0.0142,-0.0148,-0.0142,-0.0193,-0.0193,-0.0193,-0.0193,0,0.0291,0.0314,0.0348,0.0402,0.0462,0.0512,0.0543,0.0569,0.0585,0.0561,0.0548,0.0435,0.0375,0.0209,0.0092,-0.0018,-0.0043,-0.0074,-0.0079,-0.0079,-0.0032,0.0012,-0.0009,0,0,0,0,0,0.0298,0.0321,0.037,0.0424,0.049,0.0521,0.0576,0.0601,0.0614,0.0594,0.057,0.0478,0.0309,0.0232,0.0124,0.0079,-0.0068,-0.0051,-0.0107,-0.02,-0.0198,-0.0161,0,0,0,0,0,0,0.0297,0.0339,0.0361,0.0432,0.0475,0.0543,0.0578,0.0592,0.058,0.0575,0.0487,0.045,0.0284,0.0367,0.0119,0.0086,0.0037,-0.0129,-0.0131,-0.02,-0.0199,-0.0198,-0.016,0,0,0,0,0]}]]